Location: Newark
(51.2656°N, 3.9089°E)
Time: 04:10:05
(UTC+00:00)

ISS - Pass Details

Date: 31 October 2019
Orbit: 412 x 421 km, 51.6° (Epoch: 20 November)

Event Time Altitude Azimuth Distance (km) Brightness Sun altitude
Exits shadow 03:57:33 30° 114° (ESE) 786 -1.9 -25.0°
Drops below altitude 10° 03:59:46 10° 83° (E) 1,510 0.1 -24.6°
Sets 04:01:57 0° 75° (ENE) 2,376 1.5 -24.3°
